ANA110 KORD-KJFK

Flight info

Callsign ANA110
Flight time 1h 28m
Altitude 35000
Route DCT DUFEE DCT LOGGR DCT HAAKK DCT DOXXY DCT SOSIC DCT JHW Q476 WLKES PUCKY1
Aircraft B77W/H-SDE1E2E3FGHIJ2J3J4J5M1RWXY/LB1D1

Departure

Time 2026-05-09 02:03
Airport Chicago O'Hare International Airport (KORD)

Arrival

Time 2026-05-09 03:31
Airport John F. Kennedy International Airport (KJFK)
Time Latitude Longitude Altitude Speed Heading
2026-05-09 01:32 41.98196 -87.90667 675 ft 0 kts 157°
2026-05-09 01:48 41.98213 -87.90677 673 ft 4 kts 153°
2026-05-09 01:48 41.98226 -87.90686 674 ft 0 kts 150°
2026-05-09 01:49 41.98229 -87.90689 674 ft 3 kts 150°
2026-05-09 01:50 41.98243 -87.90707 674 ft 3 kts 114°
2026-05-09 01:50 41.98247 -87.90733 674 ft 3 kts 89°
2026-05-09 01:50 41.98247 -87.90761 674 ft 3 kts 82°
2026-05-09 01:50 41.98239 -87.90785 673 ft 3 kts 42°
2026-05-09 01:51 41.98223 -87.90801 674 ft 3 kts 28°
2026-05-09 01:51 41.98205 -87.90810 672 ft 3 kts 346°
2026-05-09 01:51 41.98186 -87.90798 675 ft 3 kts 327°
2026-05-09 01:51 41.98169 -87.90783 675 ft 3 kts 327°
2026-05-09 01:52 41.98155 -87.90774 675 ft 0 kts 341°
2026-05-09 01:55 41.98158 -87.90775 675 ft 3 kts 341°
2026-05-09 01:56 41.98192 -87.90785 675 ft 6 kts 350°
2026-05-09 01:56 41.98245 -87.90798 674 ft 9 kts 345°
2026-05-09 01:56 41.98284 -87.90854 672 ft 11 kts 289°
2026-05-09 01:56 41.98290 -87.90963 673 ft 12 kts 270°
2026-05-09 01:57 41.98290 -87.91047 673 ft 5 kts 270°
2026-05-09 01:57 41.98290 -87.91057 673 ft 1 kts 270°
2026-05-09 01:57 41.98290 -87.91133 673 ft 14 kts 270°
2026-05-09 01:57 41.98290 -87.91266 674 ft 14 kts 270°
2026-05-09 01:58 41.98290 -87.91400 675 ft 15 kts 270°
2026-05-09 01:58 41.98289 -87.91555 675 ft 18 kts 269°
2026-05-09 01:58 41.98289 -87.91720 675 ft 18 kts 270°
2026-05-09 01:58 41.98289 -87.91884 675 ft 18 kts 270°
2026-05-09 01:59 41.98287 -87.92050 675 ft 18 kts 268°
2026-05-09 01:59 41.98282 -87.92216 675 ft 18 kts 269°
2026-05-09 01:59 41.98280 -87.92371 675 ft 8 kts 269°
2026-05-09 01:59 41.98279 -87.92446 675 ft 8 kts 267°
2026-05-09 02:00 41.98277 -87.92520 675 ft 5 kts 270°
2026-05-09 02:00 41.98277 -87.92566 675 ft 2 kts 270°
2026-05-09 02:00 41.98277 -87.92573 675 ft 2 kts 270°
2026-05-09 02:00 41.98301 -87.92637 675 ft 9 kts 332°
2026-05-09 02:01 41.98349 -87.92646 676 ft 5 kts
2026-05-09 02:01 41.98378 -87.92613 676 ft 5 kts 58°
2026-05-09 02:01 41.98387 -87.92561 676 ft 6 kts 85°
2026-05-09 02:01 41.98389 -87.92500 675 ft 7 kts 87°
2026-05-09 02:02 41.98390 -87.92451 674 ft 13 kts 89°
2026-05-09 02:02 41.98390 -87.92049 675 ft 83 kts 90°
2026-05-09 02:02 41.98390 -87.90904 671 ft 159 kts 90°
2026-05-09 02:02 41.98395 -87.89207 970 ft 190 kts 90°
2026-05-09 02:03 41.98412 -87.87507 1959 ft 184 kts 90°
2026-05-09 02:03 41.98437 -87.85782 2841 ft 188 kts 90°
2026-05-09 02:03 41.98470 -87.83994 3623 ft 193 kts 90°
2026-05-09 02:03 41.98499 -87.82161 4301 ft 203 kts 90°
2026-05-09 02:04 41.98529 -87.80121 4543 ft 234 kts 90°
2026-05-09 02:04 41.98559 -87.77800 4878 ft 261 kts 90°
2026-05-09 02:04 41.98588 -87.75282 5544 ft 275 kts 90°
2026-05-09 02:04 41.98780 -87.72702 6232 ft 283 kts 78°
2026-05-09 02:05 41.99264 -87.70104 7053 ft 290 kts 74°
2026-05-09 02:05 41.99819 -87.67481 7947 ft 294 kts 74°
2026-05-09 02:05 42.00381 -87.64812 8804 ft 299 kts 74°
2026-05-09 02:05 42.00934 -87.62102 9612 ft 303 kts 74°
2026-05-09 02:06 42.01479 -87.59336 10399 ft 310 kts 74°
2026-05-09 02:06 42.02039 -87.56429 10781 ft 335 kts 74°
2026-05-09 02:06 42.02641 -87.53259 11010 ft 365 kts 74°
2026-05-09 02:07 42.03951 -87.46225 12148 ft 401 kts 73°
2026-05-09 02:07 42.04627 -87.42541 13119 ft 408 kts 73°
2026-05-09 02:07 42.05311 -87.38798 14041 ft 416 kts 73°
2026-05-09 02:07 42.06008 -87.34982 14946 ft 423 kts 73°
2026-05-09 02:08 42.06716 -87.31097 15802 ft 431 kts 73°
2026-05-09 02:08 42.07434 -87.27150 16665 ft 439 kts 73°
2026-05-09 02:08 42.08163 -87.23131 17484 ft 446 kts 74°
2026-05-09 02:08 42.08905 -87.19036 18287 ft 453 kts 73°
2026-05-09 02:09 42.09646 -87.14938 19033 ft 460 kts 74°
2026-05-09 02:09 42.10418 -87.10661 19788 ft 468 kts 74°
2026-05-09 02:09 42.11103 -87.06349 20501 ft 476 kts 78°
2026-05-09 02:09 42.11477 -87.01881 21198 ft 484 kts 85°
2026-05-09 02:10 42.11641 -86.97391 21865 ft 490 kts 86°
2026-05-09 02:10 42.11778 -86.92775 22523 ft 496 kts 87°
2026-05-09 02:10 42.11913 -86.88097 23144 ft 503 kts 87°
2026-05-09 02:10 42.12057 -86.83363 23733 ft 510 kts 87°
2026-05-09 02:11 42.12216 -86.78498 24349 ft 515 kts 86°
2026-05-09 02:11 42.12377 -86.73727 24905 ft 520 kts 87°
2026-05-09 02:11 42.12547 -86.68817 25358 ft 529 kts 87°
2026-05-09 02:11 42.12719 -86.63836 25858 ft 535 kts 87°
2026-05-09 02:12 42.12891 -86.58820 26353 ft 540 kts 87°
2026-05-09 02:12 42.13064 -86.53727 26820 ft 546 kts 87°
2026-05-09 02:12 42.13234 -86.48600 27247 ft 552 kts 87°
2026-05-09 02:12 42.13403 -86.43403 27668 ft 558 kts 87°
2026-05-09 02:13 42.13572 -86.38150 28097 ft 563 kts 87°
2026-05-09 02:13 42.13740 -86.32863 28486 ft 568 kts 87°
2026-05-09 02:13 42.13905 -86.27519 28863 ft 573 kts 87°
2026-05-09 02:13 42.14070 -86.22134 29187 ft 578 kts 88°
2026-05-09 02:14 42.14235 -86.16696 29488 ft 583 kts 88°
2026-05-09 02:14 42.14398 -86.11230 29807 ft 587 kts 88°
2026-05-09 02:14 42.14502 -86.05726 30189 ft 588 kts 90°
2026-05-09 02:14 42.14489 -86.00359 30639 ft 587 kts 91°
2026-05-09 02:15 42.14414 -85.94934 31187 ft 585 kts 92°
2026-05-09 02:15 42.14320 -85.89475 31707 ft 583 kts 92°
2026-05-09 02:15 42.14235 -85.84009 32238 ft 581 kts 92°
2026-05-09 02:15 42.14167 -85.78520 32806 ft 578 kts 91°
2026-05-09 02:16 42.14112 -85.73192 33350 ft 575 kts 91°
2026-05-09 02:16 42.14066 -85.67817 33874 ft 572 kts 91°
2026-05-09 02:16 42.14020 -85.62463 34392 ft 569 kts 91°
2026-05-09 02:16 42.13985 -85.58550 34740 ft 567 kts 91°
2026-05-09 02:17 42.13933 -85.53223 34889 ft 571 kts 91°
2026-05-09 02:17 42.13816 -85.42478 34848 ft 572 kts 91°
2026-05-09 02:18 42.13689 -85.31819 34846 ft 567 kts 91°
2026-05-09 02:18 42.13552 -85.21208 34850 ft 565 kts 91°
2026-05-09 02:19 42.13406 -85.10630 34861 ft 564 kts 91°
2026-05-09 02:19 42.13252 -85.00046 34862 ft 567 kts 91°
2026-05-09 02:20 42.13099 -84.90736 34863 ft 576 kts 91°
2026-05-09 02:20 42.12914 -84.79941 34849 ft 576 kts 91°
2026-05-09 02:21 42.12722 -84.69179 34847 ft 574 kts 91°
2026-05-09 02:21 42.12521 -84.58508 34851 ft 573 kts 92°
2026-05-09 02:22 42.12418 -84.47777 34857 ft 573 kts 87°
2026-05-09 02:22 42.13313 -84.37107 34858 ft 573 kts 79°
2026-05-09 02:23 42.14595 -84.26492 34858 ft 575 kts 79°
2026-05-09 02:23 42.15839 -84.15807 34854 ft 577 kts 79°
2026-05-09 02:24 42.17023 -84.05087 34855 ft 579 kts 80°
2026-05-09 02:24 42.17990 -83.96149 34850 ft 580 kts 80°
2026-05-09 02:25 42.19150 -83.85382 34850 ft 580 kts 80°
2026-05-09 02:25 42.20305 -83.74618 34843 ft 580 kts 80°
2026-05-09 02:26 42.21448 -83.63868 34839 ft 578 kts 80°
2026-05-09 02:26 42.22576 -83.53160 34848 ft 576 kts 80°
2026-05-09 02:27 42.23198 -83.42390 34855 ft 575 kts 89°
2026-05-09 02:27 42.23241 -83.31603 34854 ft 575 kts 90°
2026-05-09 02:28 42.23245 -83.20827 34851 ft 574 kts 89°
2026-05-09 02:28 42.23292 -83.10049 34853 ft 574 kts 89°
2026-05-09 02:29 42.23359 -82.99262 34853 ft 574 kts 89°
2026-05-09 02:29 42.23418 -82.88495 34849 ft 574 kts 89°
2026-05-09 02:30 42.23460 -82.77796 34851 ft 574 kts 89°
2026-05-09 02:30 42.23493 -82.67029 34853 ft 574 kts 89°
2026-05-09 02:31 42.23515 -82.56241 34851 ft 575 kts 89°
2026-05-09 02:31 42.23526 -82.45435 34860 ft 576 kts 89°
2026-05-09 02:32 42.23527 -82.34605 34861 ft 577 kts 89°
2026-05-09 02:32 42.23518 -82.23753 34855 ft 579 kts 90°
2026-05-09 02:33 42.23499 -82.12875 34862 ft 580 kts 90°
2026-05-09 02:33 42.23470 -82.01986 34863 ft 581 kts 90°
2026-05-09 02:34 42.23430 -81.91097 34861 ft 581 kts 90°
2026-05-09 02:34 42.23379 -81.80184 34861 ft 581 kts 90°
2026-05-09 02:35 42.23320 -81.69291 34871 ft 580 kts 90°
2026-05-09 02:35 42.23250 -81.58411 34875 ft 579 kts 90°
2026-05-09 02:36 42.23169 -81.47556 34884 ft 578 kts 90°
2026-05-09 02:36 42.23077 -81.36728 34887 ft 576 kts 90°
2026-05-09 02:37 42.22976 -81.25932 34890 ft 575 kts 90°
2026-05-09 02:37 42.22866 -81.15162 34896 ft 573 kts 90°
2026-05-09 02:38 42.22746 -81.04418 34901 ft 572 kts 90°
2026-05-09 02:38 42.22617 -80.93693 34910 ft 572 kts 90°
2026-05-09 02:39 42.22478 -80.82972 34909 ft 571 kts 90°
2026-05-09 02:39 42.22328 -80.72241 34907 ft 571 kts 90°
2026-05-09 02:40 42.22168 -80.61596 34909 ft 571 kts 90°
2026-05-09 02:40 42.22002 -80.50884 34917 ft 571 kts 90°
2026-05-09 02:41 42.21821 -80.40179 34917 ft 571 kts 90°
2026-05-09 02:41 42.21629 -80.29457 34919 ft 572 kts 91°
2026-05-09 02:42 42.21428 -80.18724 34918 ft 573 kts 90°
2026-05-09 02:42 42.21219 -80.07961 34915 ft 574 kts 91°
2026-05-09 02:43 42.20998 -79.97186 34918 ft 575 kts 91°
2026-05-09 02:43 42.20767 -79.86413 34919 ft 575 kts 91°
2026-05-09 02:44 42.20527 -79.75633 34927 ft 575 kts 91°
2026-05-09 02:44 42.20277 -79.64950 34923 ft 574 kts 91°
2026-05-09 02:45 42.20016 -79.54192 34927 ft 573 kts 91°
2026-05-09 02:45 42.19745 -79.43440 34925 ft 572 kts 91°
2026-05-09 02:46 42.19468 -79.32800 34936 ft 571 kts 91°
2026-05-09 02:46 42.19181 -79.22106 34938 ft 570 kts 92°
2026-05-09 02:47 42.18597 -79.13215 34925 ft 570 kts 100°
2026-05-09 02:47 42.16739 -79.02871 34930 ft 566 kts 111°
2026-05-09 02:48 42.14158 -78.92850 34934 ft 566 kts 112°
2026-05-09 02:48 42.11564 -78.82834 34930 ft 567 kts 111°
2026-05-09 02:49 42.09009 -78.72779 34934 ft 567 kts 111°
2026-05-09 02:49 42.06469 -78.62722 34933 ft 567 kts 111°
2026-05-09 02:50 42.03917 -78.52672 34944 ft 567 kts 111°
2026-05-09 02:50 42.01356 -78.42640 34942 ft 567 kts 112°
2026-05-09 02:51 41.98785 -78.32624 34941 ft 568 kts 112°
2026-05-09 02:51 41.96197 -78.22583 34945 ft 569 kts 112°
2026-05-09 02:52 41.93597 -78.12536 34956 ft 569 kts 112°
2026-05-09 02:52 41.90990 -78.02494 34941 ft 570 kts 112°
2026-05-09 02:53 41.88369 -77.92442 34950 ft 570 kts 112°
2026-05-09 02:53 41.85744 -77.82413 34952 ft 569 kts 112°
2026-05-09 02:54 41.83138 -77.72464 34954 ft 569 kts 112°
2026-05-09 02:54 41.80511 -77.62453 34951 ft 569 kts 112°
2026-05-09 02:55 41.77874 -77.52454 34962 ft 569 kts 112°
2026-05-09 02:55 41.75206 -77.42468 34943 ft 570 kts 113°
2026-05-09 02:56 41.72522 -77.32468 34944 ft 571 kts 113°
2026-05-09 02:56 41.69829 -77.22452 34961 ft 573 kts 113°
2026-05-09 02:57 41.67119 -77.12411 34947 ft 574 kts 113°
2026-05-09 02:57 41.64394 -77.02355 34953 ft 575 kts 113°
2026-05-09 02:58 41.61660 -76.92299 34954 ft 575 kts 113°
2026-05-09 02:58 41.58942 -76.82331 34966 ft 575 kts 113°
2026-05-09 02:59 41.56195 -76.72305 34959 ft 574 kts 113°
2026-05-09 02:59 41.53447 -76.62311 34966 ft 573 kts 113°
2026-05-09 03:00 41.50699 -76.52353 34961 ft 572 kts 113°
2026-05-09 03:00 41.47955 -76.42426 34955 ft 570 kts 113°
2026-05-09 03:01 41.45208 -76.32528 34968 ft 568 kts 114°
2026-05-09 03:01 41.42459 -76.22650 34975 ft 568 kts 114°
2026-05-09 03:02 41.39698 -76.12780 34981 ft 568 kts 114°
2026-05-09 03:02 41.38306 -76.07820 34207 ft 579 kts 114°
2026-05-09 03:02 41.36888 -76.02780 33293 ft 581 kts 114°
2026-05-09 03:02 41.35471 -75.97746 32333 ft 581 kts 113°
2026-05-09 03:03 41.34056 -75.92723 31333 ft 580 kts 113°
2026-05-09 03:03 41.32635 -75.87687 30274 ft 581 kts 113°
2026-05-09 03:03 41.31214 -75.82674 29558 ft 575 kts 113°
2026-05-09 03:03 41.29811 -75.77729 28919 ft 568 kts 113°
2026-05-09 03:04 41.28423 -75.72836 28295 ft 562 kts 113°
2026-05-09 03:04 41.27043 -75.68015 27669 ft 554 kts 114°
2026-05-09 03:04 41.25570 -75.63317 27032 ft 547 kts 116°
2026-05-09 03:04 41.24017 -75.58730 26406 ft 540 kts 117°
2026-05-09 03:05 41.22451 -75.54222 25822 ft 534 kts 117°
2026-05-09 03:05 41.20911 -75.49771 25211 ft 528 kts 117°
2026-05-09 03:05 41.19419 -75.45397 24612 ft 523 kts 117°
2026-05-09 03:05 41.17944 -75.41021 24012 ft 517 kts 116°
2026-05-09 03:06 41.16488 -75.36687 23419 ft 512 kts 116°
2026-05-09 03:06 41.15047 -75.32409 23102 ft 506 kts 116°
2026-05-09 03:06 41.13602 -75.28135 22974 ft 505 kts 116°
2026-05-09 03:06 41.12173 -75.23911 22972 ft 501 kts 116°
2026-05-09 03:07 41.10747 -75.19693 22970 ft 500 kts 116°
2026-05-09 03:07 41.09321 -75.15482 22973 ft 502 kts 116°
2026-05-09 03:07 41.07888 -75.11256 22977 ft 503 kts 116°
2026-05-09 03:07 41.06453 -75.07034 22975 ft 502 kts 116°
2026-05-09 03:08 41.05021 -75.02828 22686 ft 498 kts 117°
2026-05-09 03:08 41.03602 -74.98669 22109 ft 494 kts 117°
2026-05-09 03:08 41.02194 -74.94540 21631 ft 487 kts 116°
2026-05-09 03:08 41.00816 -74.90500 21431 ft 476 kts 116°
2026-05-09 03:09 40.99525 -74.86524 21225 ft 481 kts 111°
2026-05-09 03:09 40.98720 -74.82198 20970 ft 487 kts 99°
2026-05-09 03:09 40.98232 -74.77762 20741 ft 488 kts 97°
2026-05-09 03:09 40.97813 -74.73301 20495 ft 486 kts 97°
2026-05-09 03:10 40.97392 -74.68870 20243 ft 484 kts 97°
2026-05-09 03:10 40.96940 -74.64469 19994 ft 482 kts 98°
2026-05-09 03:10 40.96456 -74.60098 19735 ft 479 kts 98°
2026-05-09 03:10 40.95950 -74.55750 19493 ft 477 kts 99°
2026-05-09 03:11 40.95611 -74.52894 19329 ft 475 kts 99°
2026-05-09 03:11 40.95091 -74.48575 19101 ft 472 kts 99°
2026-05-09 03:11 40.94582 -74.44356 19026 ft 458 kts 99°
2026-05-09 03:11 40.94088 -74.40262 18989 ft 447 kts 99°
2026-05-09 03:12 40.93599 -74.36203 18993 ft 445 kts 99°
2026-05-09 03:12 40.93117 -74.32195 18987 ft 434 kts 99°
2026-05-09 03:12 40.92650 -74.28324 18987 ft 418 kts 99°
2026-05-09 03:12 40.92198 -74.24596 18992 ft 403 kts 99°
2026-05-09 03:13 40.91329 -74.17447 19012 ft 395 kts 99°
2026-05-09 03:13 40.90822 -74.13892 18992 ft 390 kts 109°
2026-05-09 03:13 40.89651 -74.10729 18997 ft 380 kts 132°
2026-05-09 03:14 40.87794 -74.08357 19001 ft 365 kts 155°
2026-05-09 03:14 40.85584 -74.06814 19007 ft 357 kts 164°
2026-05-09 03:14 40.83289 -74.05537 18840 ft 360 kts 166°
2026-05-09 03:14 40.80963 -74.04324 18526 ft 360 kts 167°
2026-05-09 03:15 40.78636 -74.03132 18228 ft 357 kts 167°
2026-05-09 03:15 40.76335 -74.01959 17913 ft 352 kts 167°
2026-05-09 03:15 40.74065 -74.00807 17611 ft 348 kts 167°
2026-05-09 03:15 40.71819 -73.99670 17316 ft 344 kts 167°
2026-05-09 03:16 40.69597 -73.98546 17006 ft 341 kts 167°
2026-05-09 03:16 40.67391 -73.97440 16705 ft 338 kts 167°
2026-05-09 03:16 40.65194 -73.96343 16404 ft 336 kts 167°
2026-05-09 03:16 40.63045 -73.95274 16111 ft 334 kts 167°
2026-05-09 03:17 40.60874 -73.94198 15806 ft 332 kts 167°
2026-05-09 03:17 40.58722 -73.93135 15512 ft 330 kts 167°
2026-05-09 03:17 40.56573 -73.92076 15209 ft 329 kts 167°
2026-05-09 03:17 40.54429 -73.91023 14914 ft 328 kts 167°
2026-05-09 03:18 40.52294 -73.89980 14610 ft 327 kts 167°
2026-05-09 03:18 40.50165 -73.88948 14314 ft 326 kts 167°
2026-05-09 03:18 40.48038 -73.87923 14019 ft 325 kts 167°
2026-05-09 03:18 40.45913 -73.86902 13714 ft 325 kts 167°
2026-05-09 03:19 40.43795 -73.85893 13416 ft 323 kts 167°
2026-05-09 03:19 40.41678 -73.84890 13118 ft 322 kts 167°
2026-05-09 03:19 40.39573 -73.83898 12742 ft 322 kts 167°
2026-05-09 03:19 40.37451 -73.82906 12247 ft 325 kts 167°
2026-05-09 03:20 40.35348 -73.81932 11771 ft 315 kts 167°
2026-05-09 03:20 40.33280 -73.80987 11329 ft 316 kts 167°
2026-05-09 03:20 40.31227 -73.80059 10837 ft 307 kts 167°
2026-05-09 03:20 40.29271 -73.79169 10311 ft 293 kts 165°
2026-05-09 03:21 40.27533 -73.77802 9798 ft 302 kts 139°
2026-05-09 03:21 40.26328 -73.75456 9331 ft 315 kts 113°
2026-05-09 03:21 40.25948 -73.72627 8830 ft 318 kts 87°
2026-05-09 03:21 40.26448 -73.69900 8292 ft 298 kts 60°
2026-05-09 03:22 40.27675 -73.67868 7764 ft 276 kts 35°
2026-05-09 03:22 40.29209 -73.66415 7308 ft 270 kts 29°
2026-05-09 03:22 40.30757 -73.65109 6817 ft 267 kts 28°
2026-05-09 03:22 40.32314 -73.63821 6325 ft 262 kts 28°
2026-05-09 03:23 40.33853 -73.62561 5822 ft 259 kts 27°
2026-05-09 03:23 40.35374 -73.61330 5312 ft 255 kts 27°
2026-05-09 03:23 40.36879 -73.60122 4814 ft 252 kts 27°
2026-05-09 03:23 40.38391 -73.58925 4300 ft 249 kts 28°
2026-05-09 03:24 40.39849 -73.57784 3804 ft 246 kts 27°
2026-05-09 03:24 40.41330 -73.56640 3410 ft 248 kts 27°
2026-05-09 03:24 40.42815 -73.55505 3135 ft 245 kts 27°
2026-05-09 03:24 40.44258 -73.54407 3041 ft 234 kts 27°
2026-05-09 03:25 40.45626 -73.53364 2991 ft 220 kts 27°
2026-05-09 03:25 40.46944 -73.52572 2965 ft 197 kts
2026-05-09 03:25 40.48245 -73.52831 3016 ft 190 kts 332°
2026-05-09 03:25 40.49399 -73.53587 2989 ft 178 kts 328°
2026-05-09 03:26 40.50459 -73.54324 2981 ft 169 kts 328°
2026-05-09 03:26 40.51518 -73.55065 3003 ft 175 kts 327°
2026-05-09 03:26 40.52596 -73.55828 3006 ft 175 kts 327°
2026-05-09 03:26 40.53646 -73.56568 2984 ft 167 kts 327°
2026-05-09 03:27 40.54660 -73.57278 2991 ft 165 kts 327°
2026-05-09 03:27 40.55673 -73.57991 3000 ft 164 kts 325°
2026-05-09 03:27 40.56439 -73.59010 3022 ft 156 kts 300°
2026-05-09 03:27 40.57115 -73.60209 2770 ft 166 kts 303°
2026-05-09 03:28 40.57771 -73.61439 2543 ft 161 kts 299°
2026-05-09 03:28 40.58351 -73.62659 2337 ft 155 kts 298°
2026-05-09 03:28 40.58899 -73.63890 2122 ft 165 kts 299°
2026-05-09 03:28 40.59490 -73.65168 1953 ft 160 kts 301°
2026-05-09 03:29 40.60038 -73.66361 1737 ft 151 kts 300°
2026-05-09 03:29 40.60589 -73.67581 1485 ft 153 kts 301°
2026-05-09 03:29 40.61125 -73.68761 1311 ft 147 kts 301°
2026-05-09 03:29 40.61644 -73.69909 1123 ft 146 kts 301°
2026-05-09 03:30 40.62157 -73.71042 937 ft 146 kts 301°
2026-05-09 03:30 40.62677 -73.72189 741 ft 146 kts 301°
2026-05-09 03:30 40.63196 -73.73333 542 ft 145 kts 301°
2026-05-09 03:30 40.63713 -73.74459 389 ft 143 kts 300°
2026-05-09 03:31 40.64228 -73.75602 188 ft 146 kts 301°
2026-05-09 03:31 40.64742 -73.76737 36 ft 143 kts 301°
2026-05-09 03:31 40.65148 -73.77636 24 ft 59 kts 301°
2026-05-09 03:31 40.65303 -73.77981 25 ft 41 kts 301°
2026-05-09 03:32 40.65402 -73.78198 26 ft 18 kts 299°
2026-05-09 03:32 40.65418 -73.78315 26 ft 9 kts 257°
2026-05-09 03:32 40.65398 -73.78363 26 ft 0 kts 230°
2026-05-09 03:32 40.65394 -73.78369 26 ft 2 kts 225°
2026-05-09 03:33 40.65380 -73.78385 26 ft 4 kts 220°
2026-05-09 03:33 40.65350 -73.78412 25 ft 7 kts 213°
2026-05-09 03:33 40.65295 -73.78426 25 ft 9 kts 163°
2026-05-09 03:33 40.65274 -73.78413 25 ft 3 kts 158°
2026-05-09 03:34 40.65242 -73.78408 25 ft 6 kts 182°
2026-05-09 03:34 40.65228 -73.78410 25 ft 1 kts 186°
2026-05-09 03:34 40.65210 -73.78411 25 ft 3 kts 177°
2026-05-09 03:34 40.65187 -73.78399 25 ft 4 kts 151°
2026-05-09 03:35 40.65166 -73.78386 29 ft 5 kts 156°
2026-05-09 03:35 40.65141 -73.78373 25 ft 3 kts 158°
2026-05-09 03:35 40.65127 -73.78365 25 ft 2 kts 157°
2026-05-09 03:35 40.65119 -73.78360 25 ft 2 kts 156°
2026-05-09 03:36 40.65115 -73.78358 25 ft 0 kts 156°
2026-05-09 03:38 40.65115 -73.78359 25 ft 0 kts 156°